Printer-friendly version

IAU Minor Planet Center

Minor Planet Center

MPEC 2010-B31 : 2010 BB3

The following Minor Planet Electronic Circular may be linked-to from your own Web pages, but must not otherwise be redistributed electronically.

A form allowing access to any MPEC is at the bottom of this page.


Read MPEC 2010-B30 Read MPEC 2010-B32


M.P.E.C. 2010-B31                                Issued 2010 Jan. 22, 17:33 UT

     The Minor Planet Electronic Circulars contain information on unusual
         minor planets and routine data on comets.  They are published
   on behalf of Commission 20 of the International Astronomical Union by the
          Minor Planet Center, Smithsonian Astrophysical Observatory,
                          Cambridge, MA 02138, U.S.A.

             Prepared using the Tamkin Foundation Computer Network

                              MPC@CFA.HARVARD.EDU
          URL http://www.cfa.harvard.edu/iau/mpc.html  ISSN 1523-6714

                                   2010 BB3

Observations:
     K10B03B* C2010 01 21.05502 09 51 28.68 +00 42 47.1          18.8 V EB031J75
     K10B03B  C2010 01 21.08377 09 51 29.51 +00 43 35.2          18.6 V EB031J75
     K10B03B  C2010 01 21.11190 09 51 30.27 +00 44 22.3          18.7 V EB031J75
     K10B03B  C2010 01 21.11676 09 51 30.41 +00 44 30.2          18.7 V EB031J75
     K10B03B  C2010 01 21.12079 09 51 30.50 +00 44 36.9          18.7 V EB031J75
     K10B03B  C2010 01 21.93562 09 52 02.05 +01 07 39.8          18.5 V EB031J75
     K10B03B  C2010 01 21.94148 09 52 02.21 +01 07 49.7          18.9 V EB031J75
     K10B03B  C2010 01 21.94731 09 52 02.38 +01 07 59.9          18.7 V EB031J75
     K10B03B  C2010 01 22.67039 09 52 26.80 +01 29 05.1          18.6 V EB031900
     K10B03B  C2010 01 22.68046 09 52 27.07 +01 29 23.2          19.2 V EB031900

Observer details:
900 Moriyama.  Observer Y. Ikari.  Measurer Y. ikari.  0.26-m f/7.0 reflector
    + CCD.
J75 OAM Observatory, La Sagra.  Observers S. Sanchez, J. Nomen, R. Stoss,
    W. K. Y. Yeung, J. Rodriguez.  0.40-m f/10 reflector + CCD, 0.45-m f/2.8
    reflector + CCD.

Orbital elements:
2010 BB3                                                 Earth MOID = 0.2639 AU
Epoch 2010 Jan. 4.0 TT = JDT 2455200.5                  MPC
M 350.85458              (2000.0)            P               Q
n   0.52147098     Peri.  345.54057     -0.60950939     -0.78444300
a   1.5286778      Node   141.82012     +0.74454209     -0.61608560
e   0.1843336      Incl.   10.69018     +0.27231485     -0.07132818
P   1.89           H   19.8           G   0.15           U   8
Residuals in seconds of arc
100121 J75  0.1-  0.1-    100121 J75  0.3-  0.1-    100122 900  0.2-  0.1-
100121 J75  0.3+  0.0     100121 J75  0.1+  0.1+    100122 900  0.2+  0.1+
100121 J75  0.0   0.2+    100121 J75  0.1-  0.1-
100121 J75  0.1+  0.0     100121 J75  0.1-  0.0

Ephemeris:
2010 BB3                 a,e,i = 1.53, 0.18, 11                  q = 1.2469
Date    TT    R. A. (2000) Decl.     Delta      r     Elong.  Phase     V
2010 01 14    09 46.14   -02 05.2    0.317    1.248   141.6    29.3    19.1
2010 01 24    09 53.17   +02 09.5    0.288    1.247   152.3    21.5    18.6
2010 02 03    09 56.84   +08 05.3    0.271    1.250   164.8    11.9    18.2
2010 02 13    09 57.95   +14 58.0    0.269    1.256   176.6     2.7    17.7
2010 02 23    09 58.34   +21 31.3    0.281    1.265   166.9    10.2    18.2
2010 03 05    10 00.23   +26 39.0    0.308    1.277   154.9    19.2    18.8
2010 03 15    10 05.02   +29 56.0    0.347    1.293   144.6    26.5    19.3
2010 03 25    10 13.34   +31 28.2    0.395    1.310   136.1    31.9    19.7
2010 04 04    10 24.92   +31 36.5    0.450    1.330   129.0    35.7    20.1
2010 04 14    10 38.98   +30 41.6    0.512    1.352   123.1    38.4    20.5
2010 04 24    10 54.89   +29 00.1    0.579    1.376   117.9    40.2    20.9
2010 05 04    11 12.01   +26 45.5    0.651    1.400   113.3    41.4    21.2
2010 05 14    11 29.86   +24 07.7    0.727    1.425   109.1    42.1    21.5
2010 05 24    11 48.24   +21 13.8    0.808    1.451   105.2    42.3    21.8
2010 06 03    12 06.93   +18 10.1    0.892    1.477   101.4    42.3    22.0

Timothy B. Spahr             (C) Copyright 2010 MPC           M.P.E.C. 2010-B31

Read MPEC 2010-B30 Read MPEC 2010-B32


MPEC number:

Enter an
MPEC number in one of the following forms:
  • 1997-B01 (the full form)
  • J97B01 (the packed version of the full form)
  • B01 (the abbreviated form)

Valid HTML 4.01!